RH
92 95 95 100 100 91 86 100 86 81 95 89 80 71 68 57 52 54 59 61 44 23 16 7 5 3 3 4 5 5 7 10 13 20 28 40 53 63 66 62 64 65 68 79
100 100 99 99 89 78 83 99 88 82 86 74 63 52 54 61 82 89 79 68 55 25 15 9 4 4 4 4 4 4 6 9 11 14 18 39 52 76 80 71 63 56 75 100
85 74 70 83 92 98 95 96 83 74 61 56 50 60 71 73 85 99 79 67 68 46 30 14 8 8 9 9 9 10 13 16 18 22 36 70 91 100 94 73 70 86 100 100
66 76 98 99 97 97 91 79 72 69 62 52 65 69 78 74 100 100 86 82 81 70 53 38 25 24 28 28 17 29 27 28 40 54 84 100 99 98 97 100 100 98 100 100
84 89 95 88 93 88 75 84 76 63 56 56 62 70 66 81 100 100 68 67 94 80 76 73 60 58 59 62 69 66 67 70 74 94 100 100 100 100 100 100 100 100 100 100
85 88 93 79 74 98 85 69 67 62 65 62 70 85 95 71 100 100 75 65 84 95 90 94 96 82 91 90 100 100 100 100 100 100 100 100 100 100 100 100 100 100 97 88
74 80 78 72 95 93 75 79 80 88 75 76 84 100 96 72 100 100 100 82 79 75 77 98 100 95 88 100 100 100 100 100 100 100 100 100 100 100 100 99 91 94 88 78
75 86 85 84 99 78 73 79 89 100 77 75 90 95 96 90 86 97 97 100 79 75 89 69 72 99 100 58 71 95 100 100 100 100 98 82 92 89 76 69 68 65 68 67
77 78 93 88 90 74 76 84 92 97 100 85 98 98 88 98 83 100 100 100 89 89 80 74 88 67 68 77 73 69 71 79 81 79 81 86 78 75 77 89 90 86 100 100
74 71 86 86 98 76 59 74 85 88 97 100 74 95 97 100 85 82 92 98 92 84 100 85 64 67 66 70 72 74 79 79 87 91 89 88 91 97 100 100 100 100 100 100
70 70 91 100 92 88 70 60 75 78 84 96 87 83 92 96 92 92 96 92 97 87 79 94 100 93 80 92 100 100 100 100 100 100 100 100 100 100 100 100 100 95 83 81
76 72 98 100 100 81 69 62 62 65 80 81 78 71 90 75 82 87 95 98 98 94 94 93 97 100 100 100 100 100 100 100 98 96 93 96 100 99 92 82 78 79 90 98
72 76 88 99 100 98 80 62 63 65 72 75 87 90 96 78 79 86 85 96 98 91 82 83 91 96 97 96 92 92 93 90 93 98 96 90 83 79 76 80 86 92 97 97
78 78 86 93 92 95 97 70 88 84 86 90 93 100 100 97 86 85 84 95 89 87 88 81 86 87 85 96 100 98 94 87 83 83 84 85 88 93 94 92 89 92 92 80
88 98 79 76 84 90 93 100 100 97 96 94 87 97 96 90 90 100 100 96 94 94 98 100 100 100 100 98 90 87 86 87 88 90 89 92 90 84 80 76 72 66 58 52
96 100 90 73 75 77 92 99 90 96 100 97 90 92 97 91 95 100 100 100 100 100 99 100 100 98 90 87 91 90 85 84 82 85 90 96 85 75 72 68 63 61 54 53
92 98 96 89 70 75 94 90 88 89 95 100 100 100 100 100 100 100 99 100 100 100 100 98 92 89 92 97 93 79 94 89 83 93 96 93 82 78 73 65 61 54 53 58
100 100 100 94 82 84 100 100 86 87 86 95 90 92 99 100 100 100 100 99 94 92 89 90 91 95 96 92 85 89 98 82 74 88 95 89 82 78 66 62 56 55 60 57
100 100 95 79 86 87 94 100 97 82 86 86 91 88 93 94 90 90 89 84 85 86 90 95 97 100 92 88 100 96 80 82 95 98 89 83 78 69 65 58 57 58 63 57
100 100 92 87 83 82 96 100 100 98 87 82 91 96 95 90 91 96 98 98 98 100 99 99 99 92 97 100 95 88 88 92 96 84 78 72 69 65 62 62 60 65 66 56
100 100 84 89 89 94 100 100 100 100 100 95 92 87 85 90 96 100 99 100 100 97 97 96 96 100 100 95 88 91 91 87 85 82 78 71 69 66 66 65 67 70 63 53
97 91 89 98 100 100 100 100 100 100 100 100 100 100 100 99 98 100 100 100 100 99 96 97 98 99 100 97 93 92 88 88 83 77 72 70 70 71 70 71 71 70 62 49
75 93 98 96 97 100 100 100 100 95 90 94 93 100 100 100 100 100 100 96 88 90 97 100 100 100 100 94 92 92 88 81 78 78 72 75 77 77 73 71 72 73 53 45
96 100 100 100 100 100 100 100 100 98 90 90 88 88 93 92 88 85 87 94 100 100 100 100 100 100 98 96 91 90 86 81 82 79 79 79 81 77 74 80 75 57 43 41
94 96 98 96 99 97 97 98 98 100 100 100 99 99 96 98 100 100 100 100 100 100 97 90 95 97 94 90 87 84 83 85 85 87 84 83 78 77 85 76 56 47 36 38
87 85 89 92 96 99 100 98 95 95 93 95 97 96 95 98 100 100 100 100 100 98 95 95 98 96 93 88 83 85 83 84 89 86 84 86 88 91 77 57 44 35 35 28
100 98 94 97 99 99 97 95 98 100 100 100 100 98 99 100 100 100 100 100 100 100 94 88 89 94 93 88 87 88 89 89 89 92 95 96 90 74 49 41 32 26 31 23
Wind_Speed
26 27 28 29 30 31 30 29 34 30 34 36 37 42 41 43 45 44 49 54 62 61 62 51 42 42 44 48 55 58 60 64 66 67 67 70 68 60 54 55 59 59 57 53
28 27 26 26 26 23 23 25 25 24 27 30 31 34 35 28 26 32 40 42 45 48 39 36 31 28 27 29 32 33 35 38 43 48 49 47 45 36 41 46 51 51 45 40
25 25 22 24 22 20 20 19 18 17 14 21 26 19 16 16 11 25 30 20 21 24 23 21 19 13 15 16 17 19 19 22 26 28 31 30 29 32 31 35 38 38 34 47
26 24 25 23 19 19 19 20 13 13 16 20 12 9 11 13 4 8 5 14 20 23 20 16 13 10 13 14 8 16 12 17 23 28 25 20 18 19 20 13 24 33 41 45
26 23 19 16 19 20 19 15 14 15 15 7 10 12 12 9 6 5 4 10 19 24 28 31 31 33 35 35 32 29 30 32 31 30 24 18 17 15 11 25 36 38 42 45
21 18 15 18 20 18 18 18 18 14 12 9 12 12 15 11 4 7 8 6 12 21 24 29 33 34 41 40 40 38 40 34 28 22 18 13 16 16 22 30 35 40 43 46
17 14 15 21 21 22 20 12 9 6 7 9 10 12 15 12 6 6 8 9 5 9 14 20 26 23 29 34 28 30 26 28 26 25 18 23 22 28 32 35 38 39 43 47
15 13 18 23 25 21 17 15 11 6 8 8 10 9 7 7 7 4 7 9 9 5 4 6 11 18 15 16 20 23 19 17 16 17 18 21 25 28 32 33 34 37 39 41
15 12 18 24 22 22 20 17 12 10 9 9 9 9 6 8 5 5 10 11 8 4 4 2 4 3 5 7 7 4 5 1 8 10 11 16 20 24 27 31 37 40 45 50
14 10 15 25 27 24 21 17 18 15 12 14 13 12 13 9 9 7 9 12 14 10 8 8 5 3 2 2 1 4 10 12 14 17 21 24 26 29 33 38 44 49 52 55
14 10 12 21 27 26 25 23 22 20 17 16 17 11 11 13 13 14 14 12 11 9 12 14 15 13 11 9 12 15 18 20 23 22 23 26 28 32 36 41 45 48 51 55
16 12 13 19 23 22 19 24 22 21 18 20 19 11 10 13 11 13 15 14 16 11 8 7 7 9 11 12 16 21 20 19 21 23 25 28 32 36 41 45 48 51 55 59
14 12 11 14 17 18 20 17 19 20 19 16 15 9 10 14 15 13 15 14 15 15 12 10 8 9 11 12 14 16 20 23 25 28 30 34 37 41 46 50 54 55 57 58
16 11 10 14 15 17 17 18 17 18 16 14 13 13 13 14 14 16 17 15 16 16 18 16 16 17 18 18 20 22 25 26 28 31 34 38 40 40 40 42 44 48 53 60
18 14 13 19 16 16 14 13 13 16 16 16 13 13 14 14 12 13 15 14 14 13 13 15 17 17 19 21 22 24 27 30 33 35 37 38 42 44 44 47 52 56 62 67
19 15 16 21 17 16 14 14 13 15 16 17 16 16 19 19 13 15 16 15 16 16 16 17 17 19 21 23 25 29 32 35 38 40 39 41 44 46 48 53 58 64 69 74
20 21 20 21 22 17 16 17 16 13 15 16 19 19 18 19 18 17 16 14 15 16 16 17 20 22 24 27 29 32 37 43 43 43 44 46 49 52 55 60 65 70 75 82
25 21 21 22 25 21 18 21 21 16 15 17 18 15 15 16 17 15 15 16 16 17 20 23 24 26 29 31 34 40 43 49 45 44 45 49 52 56 60 65 70 76 83 89
30 26 23 25 27 23 19 22 26 21 16 18 19 17 15 13 14 16 19 20 21 23 24 26 28 30 32 35 40 43 47 48 45 46 49 52 55 59 64 70 75 82 90 94
32 28 27 30 30 25 22 22 27 29 26 20 20 20 20 20 20 21 21 21 22 25 27 29 30 33 37 41 45 47 51 51 48 50 52 56 60 64 69 75 80 88 93 93
37 31 31 31 32 28 27 28 24 29 31 28 24 22 22 23 23 24 25 27 28 29 30 31 35 39 42 45 48 51 54 54 52 52 57 61 64 68 74 79 86 91 93 88
40 34 32 33 32 30 30 30 31 30 32 30 27 28 29 30 29 29 29 30 32 33 34 37 40 43 46 49 53 55 56 54 55 57 61 64 69 73 80 84 88 93 90 82
41 37 36 37 36 35 33 31 32 32 31 31 32 33 35 35 34 35 35 36 36 37 39 41 44 46 50 53 56 57 56 56 59 62 65 70 75 80 85 88 92 91 84 76
43 40 39 38 39 37 36 37 36 36 35 35 37 37 38 38 39 40 40 40 41 42 43 45 47 50 54 57 58 59 60 62 64 67 72 76 81 86 88 92 91 83 78 72
44 42 43 44 43 42 42 40 40 40 39 40 40 40 40 41 43 44 43 44 45 47 49 51 53 56 59 62 62 62 63 66 69 73 77 82 86 90 91 88 82 77 72 68
43 43 43 45 46 46 45 45 45 45 45 45 45 45 46 46 47 48 48 50 52 55 56 57 59 61 64 65 66 67 69 71 75 79 83 87 90 91 89 82 77 73 65 63
47 47 47 48 49 49 48 48 48 49 49 50 50 51 52 51 51 53 54 56 59 61 61 61 61 64 67 69 71 73 75 77 81 84 88 89 89 85 80 76 71 66 58 57
Wind_Direction
192 200 206 212 221 226 232 236 243 245 250 254 256 264 276 276 279 285 289 290 290 294 291 288 275 265 260 255 253 254 254 254 254 253 248 247 247 247 252 249 247 248 251 256
204 210 212 213 218 217 216 218 235 241 250 266 275 279 278 284 290 297 298 295 306 313 314 303 287 276 269 260 252 248 250 250 250 249 246 240 239 233 240 239 241 245 245 254
199 200 188 188 192 199 212 234 244 256 273 277 277 273 288 289 295 298 302 332 9 343 336 320 282 273 263 252 233 224 221 223 224 219 210 203 210 223 228 234 236 234 233 247
188 171 172 185 198 218 225 218 232 251 269 279 268 286 286 305 319 297 334 29 35 47 50 51 57 81 101 93 139 131 164 168 167 161 150 162 188 212 216 200 264 243 247 255
167 174 185 201 211 208 210 218 238 245 263 275 284 286 305 338 302 302 317 58 48 54 71 70 78 86 90 95 96 112 122 121 116 113 112 126 145 166 209 216 233 249 252 258
175 186 201 204 195 190 204 224 244 255 263 282 307 315 316 310 242 272 309 360 88 70 63 75 78 87 87 88 92 95 97 98 99 108 111 138 216 215 229 238 243 248 256 264
185 200 207 200 196 207 206 208 232 268 280 288 310 310 313 318 213 262 276 307 11 61 81 83 86 83 94 96 99 101 108 125 144 159 163 188 213 226 236 245 253 262 268 271
195 209 209 200 207 213 215 222 223 268 277 284 296 293 306 334 309 265 290 280 320 337 11 82 102 113 112 113 114 115 131 149 162 177 203 219 221 240 256 264 269 276 283 288
207 220 212 214 221 220 217 225 263 266 268 280 273 269 297 304 318 258 237 260 252 311 331 282 168 285 132 129 126 89 68 245 233 236 262 267 267 269 277 280 286 293 290 288
215 224 223 219 226 224 235 233 256 260 260 274 273 251 260 271 286 283 241 248 272 264 262 276 284 271 234 330 323 273 307 320 319 306 297 292 288 286 287 284 280 281 287 288
224 240 240 227 229 240 238 242 249 259 257 267 268 271 264 260 260 273 276 292 300 273 252 256 266 272 266 273 279 295 297 296 293 288 283 282 282 282 282 283 285 288 294 297
236 257 253 231 231 238 243 243 256 259 259 258 265 268 270 260 267 280 279 284 283 299 275 255 266 273 277 273 266 268 277 279 276 278 287 293 295 294 294 296 297 297 299 298
248 283 241 233 234 236 251 254 253 251 255 257 256 262 266 255 265 270 275 282 276 285 281 277 285 284 281 285 290 294 293 294 297 298 298 299 301 301 301 301 302 301 300 300
254 289 228 217 225 225 245 249 246 245 249 246 243 250 258 259 261 264 276 278 282 281 281 285 287 289 292 293 288 285 288 293 298 303 304 303 304 306 308 309 308 307 305 304
254 269 232 211 208 226 235 230 243 242 244 244 248 248 258 266 279 277 269 267 268 272 281 288 285 279 279 282 290 299 304 304 303 303 303 307 308 306 308 308 309 309 311 314
249 263 239 226 221 230 234 244 246 246 248 253 260 259 261 271 276 274 271 274 280 278 272 272 276 279 287 298 302 306 309 308 305 304 304 305 307 309 311 313 314 317 318 319
252 264 253 236 227 232 243 251 258 257 253 251 252 260 268 267 264 264 270 277 281 278 282 281 285 291 297 299 302 308 315 313 307 306 304 303 306 309 313 316 317 319 320 321
250 255 258 237 233 237 244 251 265 271 267 261 257 253 262 269 264 266 270 269 269 273 278 284 289 294 294 296 302 305 305 311 308 307 307 308 309 311 315 317 319 321 323 324
246 255 253 231 235 241 245 256 264 274 271 268 266 266 260 256 260 265 271 279 283 286 286 289 291 293 295 301 303 306 311 313 311 310 311 311 311 314 317 319 322 325 325 325
244 249 246 233 235 245 249 262 264 270 274 276 272 272 272 278 284 286 289 293 293 290 288 291 293 296 298 299 302 307 313 314 311 311 311 312 315 318 320 322 325 326 325 326
245 249 240 238 238 247 258 262 276 269 268 275 275 273 274 280 284 284 281 283 285 287 290 291 294 295 296 303 308 308 312 312 311 311 312 315 318 320 322 323 325 326 326 329
245 243 235 235 242 247 257 263 269 267 257 263 271 276 278 285 285 283 282 282 282 285 288 290 293 297 300 303 307 308 309 309 310 312 314 317 319 321 323 323 326 326 327 330
237 236 237 235 240 247 257 263 265 264 263 265 268 273 276 279 278 278 279 281 282 286 289 290 295 298 301 304 306 307 308 310 312 313 315 317 319 320 323 324 326 325 326 330
233 237 238 240 240 251 252 255 258 262 265 269 273 276 275 275 278 280 283 284 285 286 288 291 296 299 302 306 306 307 308 310 311 314 315 317 319 320 323 323 324 324 327 328
236 239 239 241 247 252 254 256 256 258 262 266 270 274 277 278 278 279 280 281 284 287 289 293 296 299 301 304 306 307 309 310 312 312 314 316 318 320 322 323 322 323 328 322
243 243 243 243 246 252 256 258 259 260 263 269 274 277 280 280 280 281 283 285 287 288 290 292 295 298 301 303 305 307 308 310 310 312 314 315 317 319 321 320 320 323 326 318
248 249 251 253 256 259 260 260 261 264 266 269 271 275 276 276 277 279 281 283 285 286 289 292 296 299 301 302 304 305 307 308 309 311 313 315 318 318 320 318 320 325 320 317